User: anonymous   Login
Location: Chiroubles
(46.1812°N, 4.6660°E)
Time: 07:50:31
(UTC+00:00)
Language:

Cosmos 1862 - Orbit

View from above orbital plane
View from above orbital plane
View from above satellite
View from above satellite

Ground track
Ground track

The orbit data is extracted from the following two-line orbital elements,

1 18152U 87055A   20299.94369179 +.00000905 +00000-0 +59393-4 0  9999
2 18152 082.4968 180.6131 0013598 353.8043 006.3014 15.06411468793164
Epoch (UTC): 25 October 2020 22:38:54
Eccentricity: 0.0013598
inclination: 82.4968°
perigee height: 538 km
apogee height: 556 km
right ascension of ascending node: 180.6131°
argument of perigee: 353.8043°
revolutions per day: 15.06411468
mean anomaly at epoch: 6.3014°
orbit number at epoch: 79316

The dashed part of the orbit path shows where the satellite is in the earth's shadow,  

DLR